CAPE
2736 1919 2099 2270 2258 894 494 640 541 843 537 400 329 189 147 235 387 338 226 174 235 212 204 330 159 237 193 198 148 139 94 68 46 0 0 38 50 93 191 60 257 238 37
36 0 12 325 579 0 0 0 50 449 501 338 289 347 416 574 500 337 487 402 226 160 125 74 64 101 74 112 140 121 102 27 72 0 0 37 111 119 258 411 149 174 170
84 3 1 0 0 1 5 448 563 556 513 527 573 641 767 767 800 511 301 177 96 130 42 8 0 32 88 138 159 138 109 99 141 148 12 90 82 211 275 348 436 441 275
0 1 0 0 29 271 231 690 605 622 744 922 1021 1111 1003 759 430 282 168 92 0 0 0 0 0 98 218 167 146 165 193 135 145 103 82 88 138 198 221 264 275 319 386
52 40 55 156 157 583 560 529 779 751 676 693 691 524 331 242 247 194 88 21 12 0 12 19 60 211 298 253 175 151 62 40 87 136 122 130 138 185 182 198 177 269 287
31 5 28 0 0 1 4 0 0 0 135 231 67 24 25 91 309 285 170 27 16 4 0 1 53 185 213 199 260 203 184 122 85 65 63 34 6 37 88 119 142 148 73
0 0 0 0 0 0 0 0 0 13 59 17 8 22 97 141 166 69 42 15 8 0 3 11 40 126 202 147 64 85 108 95 72 49 35 15 0 0 55 60 56 27 83
0 0 0 0 0 0 0 0 0 8 112 49 48 105 21 0 7 8 0 0 23 38 6 25 51 85 166 122 57 54 65 100 151 92 87 34 0 0 35 27 9 3 4
0 0 0 0 0 0 0 0 12 15 0 0 0 0 0 0 16 30 1 0 1 0 0 5 114 149 53 45 45 14 2 1 6 22 8 0 0 0 0 0 0 0 1
0 0 0 0 0 0 0 0 0 0 0 0 0 1 4 17 47 0 0 0 2 0 0 51 36 53 28 4 8 3 0 0 0 0 0 0 0 0 0 0 0 1 0
0 0 0 0 0 0 0 0 0 0 8 1 8 17 32 25 0 0 0 0 0 2 2 0 8 11 6 1 0 0 4 0 0 0 0 0 0 0 0 0 0 0 0
0 0 0 0 0 0 0 0 0 5 8 16 8 2 0 0 0 0 0 0 0 1 0 0 2 0 0 0 0 0 0 0 0 1 3 4 4 5 0 1 2 6 8
0 0 0 0 0 0 0 0 10 14 9 5 4 0 0 0 3 1 1 0 0 0 2 8 0 0 0 0 9 6 0 2 2 0 5 4 5 8 13 3 4 3 11
0 0 0 0 0 0 0 0 6 10 0 0 1 1 0 0 1 3 1 0 0 1 6 0 0 0 0 2 0 0 0 3 15 11 3 3 1 3 1 2 5 4 21
0 1 0 0 0 4 5 3 10 3 0 0 0 0 0 0 0 0 0 0 0 0 0 0 3 12 60 17 0 0 0 6 15 19 30 5 1 1 1 3 7 29 95
0 1 1 1 5 12 1 3 10 1 0 0 0 0 0 0 0 0 0 0 1 0 0 28 65 38 21 20 21 19 15 10 43 44 16 2 4 2 3 7 9 18 97
2 2 0 0 3 0 0 0 0 0 0 0 0 0 0 0 0 0 0 0 0 1 24 1 7 24 9 1 0 0 0 3 4 20 47 3 3 3 4 91 98 190 275
0 0 0 0 0 0 1 0 0 1 1 1 0 0 0 0 0 0 0 0 0 0 1 12 0 1 0 0 0 0 0 3 1 2 3 15 3 2 3 2 4 154 233
0 0 0 0 1 0 0 0 0 0 1 1 1 0 0 0 0 1 1 1 2 2 0 3 0 0 0 0 0 0 0 0 0 0 1 3 2 1 0 1 2 2 8
0 0 0 0 0 0 0 0 0 0 0 1 2 3 0 0 1 0 3 2 2 2 1 0 0 0 0 0 0 0 0 0 0 0 0 5 2 0 0 0 0 0 2
0 0 0 0 0 0 0 0 0 0 0 0 0 0 0 0 1 0 1 1 1 1 0 0 0 0 0 0 0 0 0 0 0 0 0 0 0 23 13 0 0 0 0
0 0 0 5 0 0 0 0 0 0 0 0 0 0 0 0 0 0 0 0 0 0 0 0 0 0 0 0 0 0 0 0 0 0 0 0 0 0 13 5 3 0 0
0 0 0 0 0 0 0 0 0 0 0 0 0 0 0 0 0 0 0 0 0 0 0 0 0 0 0 0 0 0 0 0 0 0 0 0 0 0 3 22 20 2 0
0 0 0 0 0 0 0 0 0 0 0 0 0 0 0 0 0 0 0 0 0 0 0 0 0 0 0 0 0 0 0 0 0 0 0 0 0 0 0 10 1 24 15
0 0 0 0 0 0 0 0 0 0 0 0 0 0 0 0 0 0 0 0 0 0 0 0 0 0 0 0 0 0 0 0 0 0 0 0 0 0 0 0 7 11 25
0 0 0 0 0 0 0 0 0 0 0 0 0 0 0 0 0 0 0 0 0 0 0 0 0 0 0 0 0 0 0 0 0 0 0 0 0 0 0 0 0 0 7
CIN
-50 -9 -9 -13 -35 -54 -44 -52 -72 -43 -124 -127 -126 -160 -146 -155 -115 -101 -89 -84 -22 -25 -19 -5 -19 -12 -16 -16 -27 -24 -25 -17 -5 -0 -0 -73 -70 -80 -52 -66 -63 -69 -77
-19 -11 -0 -43 -173 -0 -0 -0 -20 -59 -86 -100 -108 -108 -97 -74 -40 -30 -5 -4 -12 -31 -43 -73 -63 -32 -39 -22 -20 -30 -16 -25 -15 -0 -0 -45 -30 -30 -16 -19 -51 -77 -101
-39 -33 -57 -32 -0 -31 -103 -46 -30 -47 -53 -47 -51 -52 -28 -8 -7 -9 -11 -19 -49 -23 -50 -14 -0 -23 -21 -16 -16 -15 -20 -27 -14 -4 -6 -19 -15 -15 -16 -23 -25 -36 -70
-0 -148 -0 -0 -103 -114 -43 -37 -77 -46 -35 -39 -18 -4 -5 -8 -13 -21 -12 -24 -0 -0 -0 -0 -0 -14 -4 -6 -13 -17 -14 -11 -7 -6 -10 -8 -7 -13 -9 -8 -29 -39 -31
-133 -186 -196 -108 -85 -39 -73 -62 -46 -52 -48 -18 -9 -12 -20 -27 -18 -19 -30 -48 -34 -0 -41 -59 -30 -11 -3 -9 -10 -11 -14 -31 -13 -8 -4 -1 -0 -0 -1 -17 -4 -11 -9
-242 -60 -145 -0 -0 -61 -126 -0 -0 -3 -130 -44 -164 -250 -212 -63 -5 -3 -6 -64 -7 -3 -0 -29 -62 -19 -15 -25 -16 -14 -10 -14 -11 -26 -18 -6 -30 -25 -11 -5 -6 -3 -17
-0 -0 -0 -0 -0 -0 -0 -0 -0 -226 -240 -295 -287 -185 -80 -37 -20 -40 -35 -68 -5 -0 -181 -169 -101 -45 -22 -27 -49 -32 -32 -32 -28 -22 -32 -28 -0 -0 -2 -2 -13 -7 -2
-0 -0 -0 -0 -0 -0 -0 -0 -0 -153 -115 -161 -128 -47 -41 -2 -39 -126 -0 -0 -162 -160 -197 -96 -49 -33 -34 -28 -23 -40 -64 -41 -36 -42 -22 -18 -0 -0 -18 -3 -0 -1 -0
-0 -0 -0 -0 -0 -0 -0 -0 -214 -121 -0 -0 -0 -0 -0 -0 -133 -124 -40 -6 -48 -0 -0 -49 -25 -13 -29 -39 -40 -35 -11 -25 -122 -79 -94 -10 -0 -0 -0 -0 -0 -0 -0
-0 -0 -0 -0 -0 -0 -0 -0 -0 -0 -0 -0 -0 -11 -140 -140 -76 -0 -0 -0 -0 -0 -0 -13 -34 -24 -43 -47 -41 -51 -0 -0 -0 -0 -0 -0 -0 -0 -0 -0 -0 -0 -0
-0 -0 -0 -0 -0 -0 -0 -0 -0 -0 -51 -8 -62 -112 -130 -151 -0 -0 -0 -0 -0 -0 -2 -4 -35 -32 -61 -26 -0 -0 -34 -0 -0 -0 -0 -0 -0 -0 -0 -0 -0 -0 -0
-0 -0 -0 -0 -0 -0 -0 -0 -0 -7 -13 -13 -8 -13 -9 -0 -0 -0 -0 -0 -0 -0 -0 -0 -56 -0 -0 -0 -0 -0 -0 -0 -0 -49 -0 -0 -0 -0 -0 -0 -0 -0 -0
-0 -0 -0 -0 -0 -0 -0 -0 -10 -13 -12 -11 -19 -0 -0 -0 -1 -0 -0 -0 -0 -0 -67 -95 -0 -0 -0 -0 -90 -100 -4 -85 -92 -6 -30 -0 -0 -0 -0 -1 -2 -0 -0
-0 -0 -0 -0 -0 -0 -0 -0 -10 -7 -0 -0 -0 -0 -0 -0 -0 -0 -0 -0 -0 -96 -138 -0 -0 -0 -0 -18 -0 -0 -0 -50 -17 -8 -1 -0 -0 -0 -0 -0 -0 -0 -1
-0 -0 -0 -0 -0 -18 -15 -6 -5 -12 -0 -0 -0 -0 -0 -0 -0 -0 -0 -0 -0 -0 -0 -11 -97 -69 -62 -58 -0 -3 -0 -31 -14 -2 -0 -0 -0 -0 -0 -0 -0 -0 -7
-0 -1 -3 -9 -7 -13 -22 -10 -5 -2 -4 -0 -0 -0 -0 -0 -0 -0 -0 -0 -56 -0 -0 -41 -42 -32 -17 -25 -41 -19 -27 -28 -2 -0 -12 -0 -0 -0 -19 -23 -0 -0 -0
-3 -3 -13 -0 -7 -0 -0 -0 -0 -0 -0 -0 -0 -0 -0 -0 -0 -0 -0 -0 -0 -42 -23 -0 -9 -13 -35 -2 -0 -0 -0 -0 -0 -23 -0 -23 -0 -0 -0 -5 -0 -0 -0
-0 -4 -0 -0 -3 -0 -0 -0 -0 -0 -0 -0 -0 -0 -0 -0 -0 -0 -0 -0 -0 -0 -0 -34 -0 -0 -0 -0 -0 -0 -0 -0 -0 -0 -1 -9 -0 -0 -0 -0 -0 -6 -1
-0 -0 -0 -0 -18 -0 -0 -0 -0 -0 -0 -0 -0 -0 -0 -0 -0 -0 -0 -0 -0 -0 -0 -1 -0 -0 -0 -0 -0 -0 -0 -0 -0 -0 -0 -5 -20 -0 -0 -0 -0 -0 -6
-0 -0 -0 -0 -0 -0 -0 -0 -0 -0 -0 -0 -0 -0 -0 -0 -0 -0 -0 -0 -0 -0 -0 -1 -0 -0 -0 -0 -0 -0 -0 -0 -0 -0 -0 -0 -5 -0 -0 -0 -0 -0 -0
-0 -0 -0 -1 -0 -0 -0 -0 -0 -0 -0 -0 -0 -0 -0 -0 -0 -0 -0 -0 -0 -0 -0 -0 -0 -0 -0 -0 -0 -0 -0 -0 -0 -0 -0 -0 -0 -33 -58 -2 -0 -0 -0
-0 -0 -0 -23 -0 -0 -0 -0 -0 -0 -0 -0 -0 -0 -0 -0 -0 -0 -0 -0 -0 -0 -0 -0 -0 -0 -0 -0 -0 -0 -0 -0 -0 -0 -0 -0 -0 -0 -50 -39 -62 -0 -0
-0 -0 -0 -0 -0 -0 -0 -0 -0 -0 -0 -0 -0 -0 -0 -0 -0 -0 -0 -0 -0 -0 -0 -0 -0 -0 -0 -0 -0 -0 -0 -0 -0 -0 -0 -0 -0 -0 -44 -62 -67 -46 -11
-0 -0 -0 -0 -0 -0 -0 -0 -0 -0 -0 -0 -0 -0 -0 -0 -0 -0 -0 -0 -0 -0 -0 -0 -0 -0 -0 -0 -0 -0 -0 -0 -0 -0 -0 -0 -0 -0 -0 -69 -56 -56 -56
-0 -0 -0 -0 -0 -0 -0 -0 -0 -0 -0 -0 -0 -0 -0 -0 -0 -0 -0 -0 -0 -0 -0 -0 -0 -0 -0 -0 -0 -0 -0 -0 -0 -0 -0 -0 -0 -0 -0 -0 -96 -69 -44
-0 -0 -0 -0 -0 -0 -0 -0 -0 -0 -0 -0 -0 -0 -0 -0 -0 -0 -0 -0 -0 -0 -0 -0 -0 -0 -0 -0 -0 -0 -0 -0 -0 -0 -0 -0 -0 -0 -0 -0 -0 -0 -69
Wind_Speed
6 17 24 6 17 14 11 26 29 9 17 18 22 26 28 31 31 35 38 38 38 37 36 35 37 35 36 35 35 36 37 38 46 49 42 40 42 43 41 38 33 32 35
13 26 26 17 17 23 9 7 15 12 19 21 25 28 31 33 34 38 37 37 38 38 36 35 35 34 34 34 34 36 38 40 41 47 44 41 39 38 36 36 39 35 29
8 7 6 6 5 9 9 6 6 19 23 27 29 32 33 34 35 37 38 38 37 36 36 35 35 35 36 36 35 36 36 36 38 41 46 41 40 38 40 39 38 38 36
5 6 4 7 4 9 5 15 25 28 31 32 35 36 35 36 39 38 37 36 38 39 38 36 37 35 34 35 36 37 37 39 39 40 42 44 41 39 38 40 42 38 41
9 10 11 6 6 13 22 26 27 32 35 38 39 37 37 38 37 35 36 38 39 39 37 36 35 32 31 33 35 36 38 40 40 40 39 40 42 40 40 39 40 41 40
19 18 17 19 23 25 27 31 36 37 39 38 39 41 40 37 35 36 37 38 38 38 39 37 34 32 32 33 34 35 35 36 38 40 41 41 43 43 43 42 43 43 46
22 22 25 28 30 32 34 36 38 41 39 39 39 39 38 37 36 38 39 38 38 37 37 37 34 32 31 33 35 34 33 31 31 38 41 42 44 43 43 44 44 45 46
26 29 31 32 33 35 37 39 40 38 37 38 38 36 36 36 37 39 39 38 37 35 35 35 33 34 33 32 31 31 30 31 32 34 39 42 43 44 43 45 46 47 48
29 32 35 38 40 41 41 40 38 37 38 36 36 36 36 37 38 40 42 39 38 37 34 34 31 31 32 33 30 30 33 36 36 37 42 47 49 49 46 47 50 48 52
36 38 40 40 40 38 36 36 36 35 35 36 36 34 35 36 36 42 43 41 39 37 33 30 31 31 29 30 31 35 40 42 42 48 47 47 48 48 49 47 47 50 49
38 39 37 36 36 35 35 34 35 36 35 35 33 33 34 34 38 43 41 40 40 35 31 30 32 34 36 34 34 36 38 42 44 45 50 52 53 52 49 47 44 45 52
36 36 36 35 35 34 33 34 36 34 35 35 33 35 36 37 40 41 40 37 36 31 32 32 29 39 40 40 37 35 34 36 40 47 51 52 52 48 44 44 46 47 49
36 36 35 34 33 33 34 35 35 35 35 35 35 37 39 39 40 40 37 35 30 22 17 20 10 27 33 28 27 25 28 35 43 49 49 51 53 49 45 42 39 44 48
34 34 34 33 33 34 33 34 35 35 36 35 35 37 39 40 41 42 37 33 25 22 25 25 9 7 5 10 22 26 28 34 41 23 42 45 41 32 19 25 35 36 39
32 31 31 31 31 33 33 33 33 33 31 32 34 37 40 41 41 41 39 32 31 22 14 4 3 12 19 19 25 24 24 32 45 36 40 37 25 16 15 18 27 30 34
30 29 30 31 33 32 33 33 32 34 28 30 34 37 38 37 41 41 39 32 31 31 32 21 27 27 25 27 28 31 26 24 15 39 41 37 31 23 19 21 25 28 31
29 30 31 31 32 33 34 33 34 34 31 32 36 38 39 39 39 41 36 31 30 24 25 24 23 27 30 31 34 33 35 35 38 37 40 37 32 27 22 22 25 23 27
29 29 31 30 30 32 32 32 33 34 35 34 34 37 38 37 38 39 36 29 30 27 23 25 26 29 31 33 35 37 36 31 29 32 36 35 34 29 24 21 21 25 28
24 27 28 29 29 30 30 31 32 33 34 34 34 34 36 36 34 35 34 30 30 26 23 24 27 30 32 33 35 36 37 37 25 24 29 31 31 34 31 25 20 19 17
24 22 25 27 27 30 30 31 32 33 34 34 34 35 35 32 32 32 31 29 29 28 26 25 28 30 32 34 35 36 38 40 37 23 25 26 32 33 28 26 23 19 15
28 24 21 21 24 28 30 30 31 31 33 33 33 33 33 30 29 27 29 28 29 28 29 27 27 30 32 34 35 36 37 35 26 26 22 19 19 20 28 27 25 22 15
28 28 27 21 23 25 26 27 28 30 31 32 30 31 30 28 27 27 28 28 28 30 29 28 28 30 32 34 35 35 33 30 21 13 10 19 16 10 9 24 26 25 22
28 25 28 27 25 23 21 23 25 26 27 28 29 29 27 27 25 26 27 28 27 29 27 29 28 30 31 33 34 32 27 21 9 6 9 11 10 28 8 5 8 15 15
26 27 28 28 29 31 29 24 21 21 20 19 20 25 26 26 25 25 28 28 26 23 26 27 29 31 32 34 34 35 35 36 32 17 8 7 19 28 29 33 29 16 17
24 26 27 29 28 29 28 27 27 26 16 13 15 3 4 8 8 24 25 25 27 28 29 28 30 32 34 36 36 36 36 35 35 35 33 32 31 30 29 29 28 28 30
24 25 26 26 27 28 28 28 24 23 19 1 6 8 25 18 27 26 24 27 28 29 30 31 31 33 35 35 35 36 36 36 36 35 33 32 32 32 31 30 29 27 26
Wind_Direction
284 318 306 243 324 295 345 301 271 324 338 335 337 337 335 334 332 332 331 331 330 329 327 325 322 319 314 311 308 305 302 301 298 296 298 299 297 294 295 299 300 305 302
331 305 249 295 330 272 327 280 284 312 333 333 333 332 331 332 331 332 331 331 329 329 328 325 323 322 319 315 309 305 302 300 297 294 296 297 297 298 297 294 293 298 300
317 172 219 215 311 303 265 265 282 331 332 332 332 330 330 330 332 331 330 329 328 330 330 327 324 320 316 314 311 307 305 304 301 296 292 295 295 296 295 293 293 292 292
82 46 54 356 324 330 292 330 330 331 331 332 331 330 330 330 330 330 329 330 328 327 326 324 320 318 315 315 312 309 307 303 301 298 294 291 293 294 293 292 289 290 285
44 25 13 14 2 348 339 336 336 336 335 333 332 331 330 331 332 330 329 328 328 327 326 325 323 321 317 315 313 310 307 303 301 298 297 294 291 291 289 290 288 287 285
358 359 358 352 345 342 340 335 334 334 335 335 334 333 332 332 331 329 329 329 328 327 325 324 323 319 316 314 314 310 307 304 300 296 294 293 289 288 286 285 284 284 279
357 354 349 344 341 338 337 336 335 334 334 335 336 336 334 333 332 331 330 329 328 329 326 324 324 321 318 314 314 313 311 308 304 297 291 291 288 287 282 280 280 279 275
348 345 343 341 339 337 336 336 335 336 337 337 336 335 335 336 336 336 334 333 330 329 327 324 323 320 316 316 316 316 315 313 309 303 293 291 289 284 282 278 277 276 273
344 341 338 336 334 334 334 335 336 338 337 337 337 338 339 340 340 340 337 336 332 330 328 326 323 322 317 314 318 317 316 312 310 305 295 288 282 280 279 279 271 272 267
337 335 334 335 335 336 336 337 339 340 339 339 341 343 342 341 342 341 341 341 338 335 335 332 324 320 319 321 321 318 313 309 306 297 296 293 286 282 279 277 273 267 266
336 336 337 338 338 339 339 339 339 338 338 342 342 344 345 345 343 341 341 344 342 342 340 334 326 318 316 320 321 318 318 313 307 306 297 291 286 285 280 276 273 268 262
340 339 339 339 341 342 342 341 339 341 342 343 343 343 345 345 344 343 344 346 346 344 332 322 337 309 300 308 320 323 327 328 325 311 303 295 289 289 282 277 272 266 261
342 341 342 343 345 344 343 342 342 344 345 344 344 343 343 345 346 347 350 351 353 355 1 352 308 285 327 341 347 354 353 346 337 309 296 286 284 283 282 278 271 264 257
342 343 343 345 345 345 346 345 345 346 346 346 346 344 344 345 346 347 354 357 5 6 354 342 14 21 246 38 13 3 6 358 351 318 298 295 289 296 302 284 264 256 251
345 347 348 348 348 346 348 350 350 351 353 352 348 345 343 344 345 344 348 356 357 2 271 285 273 280 37 39 16 23 11 9 352 319 324 318 326 338 327 295 263 255 250
349 350 348 347 345 350 350 349 355 355 1 0 354 348 344 345 344 344 344 356 353 338 340 325 346 7 19 19 16 10 20 18 360 329 336 333 324 310 318 295 270 260 254
351 351 348 347 349 351 350 350 347 349 353 354 351 350 345 342 344 344 344 356 349 322 342 350 353 359 358 8 10 15 14 18 337 335 341 340 334 325 328 298 270 270 259
357 357 355 355 355 353 352 353 352 350 348 350 352 349 343 342 345 350 349 355 343 330 326 342 342 356 358 4 7 9 18 30 333 336 342 348 350 343 331 317 298 268 260
2 4 5 3 1 0 357 355 354 353 352 350 350 349 343 339 347 349 353 5 3 343 336 343 347 357 359 4 8 14 19 23 38 334 339 343 351 358 360 347 325 306 289
360 3 6 8 9 5 2 359 358 356 354 351 352 348 339 341 340 341 346 351 353 348 345 346 352 355 357 1 2 3 4 12 27 334 336 340 348 357 354 353 356 350 323
359 4 9 13 13 9 8 4 1 360 355 352 352 350 343 344 339 332 340 339 350 342 345 346 350 353 353 356 357 357 359 346 13 43 335 333 335 336 355 358 1 357 343
1 2 5 16 16 15 16 15 11 6 1 356 351 346 341 348 342 335 339 341 341 355 358 349 353 351 351 353 352 346 338 331 324 335 15 47 45 340 314 351 359 2 357
2 8 3 10 18 24 24 21 21 20 16 7 354 344 337 337 330 331 335 340 331 349 340 1 356 347 347 347 347 334 319 312 319 359 324 321 29 36 341 291 302 330 338
3 5 5 6 12 14 21 34 38 37 42 47 24 328 332 337 327 322 334 327 323 309 339 358 360 349 339 338 339 342 346 340 356 29 299 302 312 332 345 0 15 308 309
10 4 2 2 18 23 26 33 36 36 61 71 65 113 281 81 294 329 327 332 334 341 350 5 357 350 343 338 338 335 333 335 338 340 345 348 333 332 336 342 348 357 11
8 2 357 9 19 26 34 37 49 55 66 229 93 303 345 331 349 338 333 340 340 346 348 355 3 352 345 339 337 337 339 339 340 338 344 346 342 340 336 340 341 343 342